Flag for Canada Weather past 2 weeks in Saint John, New Brunswick, Canada

Now
46 °F

Passing clouds.


Feels Like: 41 °F
Forecast: N/A
Wind: 13 mph from West

Location: Saint John

Current Time: Oct 20, 2014 at 6:31:05 PM

Latest Report: Oct 20, 2014 at 5:00 PM


Visibility: 15 mi

Pressure: 29.86 "Hg

Humidity: 46%

Dew point: 27 °F

Location of Saint JohnLocation

Historic Weather in Saint John — Graph

°F

Saint John temperature yesterday

Maximum temperature yesterday: 57 °F (at 12:00 AM)
Minimum temperature yesterday: 41 °F (at 11:00 PM)
Average temperature yesterday: 53 °F

Past Weeks' High & Low Weather Summary

 TemperatureHumidityPressure
High68 °F (Oct 15, 3:00 PM)100% (Oct 5, 5:00 PM)30.33 "Hg (Oct 5, 5:00 PM)
Low28 °F (Oct 12, 5:00 AM)39% (Oct 6, 4:00 PM)29.48 "Hg (Oct 19, 3:00 AM)
Average52 °F86%29.97 "Hg
* Reported Oct 5 5:00 PM — Oct 20 5:00 PM, Saint John, Weather by CustomWeather, © 2014

Note: Actual official high and low records may vary slightly from our data, if they occured in-between our weather recording intervals... More about our weather records

Advertising

Saint John weather history for previous 24 hours

 ConditionsComfort  
Time TempWeatherWind HumidityBarometerVisibility
5:00 PM
Oct 20
46 °FPassing clouds.13 mph46%29.86 "Hg15 mi
4:00 PM46 °FScattered clouds.18 mph46%29.85 "Hg15 mi
3:00 PM46 °FPartly sunny.15 mph50%29.86 "Hg15 mi
2:00 PM43 °FPartly sunny.10 mph57%29.86 "Hg15 mi
1:00 PM41 °FPartly sunny.14 mph57%29.86 "Hg15 mi
12:00 PM41 °FPartly sunny.16 mph57%29.85 "Hg15 mi
11:00 AM41 °FPartly sunny.17 mph61%29.85 "Hg15 mi
10:00 AM41 °FBroken clouds.15 mph61%29.83 "Hg15 mi
9:00 AM39 °FPartly sunny.9 mph70%29.82 "Hg15 mi
8:00 AM37 °FPassing clouds.13 mph75%29.78 "Hg15 mi
7:00 AM37 °FPassing clouds.14 mph75%29.75 "Hg15 mi
6:00 AM39 °FPassing clouds.9 mph70%29.73 "Hg15 mi
5:00 AM39 °FOvercast.12 mph81%29.71 "Hg15 mi
4:00 AM37 °FMostly cloudy.8 mph87%29.69 "Hg15 mi
3:00 AM39 °FMostly cloudy.12 mph81%29.70 "Hg15 mi
2:00 AM37 °FSprinkles. Mostly cloudy.14 mph87%29.69 "Hg15 mi
12:00 AM41 °FSprinkles. Mostly cloudy.12 mph76%29.69 "Hg15 mi
11:00 PM
Oct 19
41 °FSprinkles. Overcast.17 mph81%29.68 "Hg15 mi
10:00 PM43 °FMostly cloudy.18 mph76%29.68 "Hg15 mi
9:00 PM45 °FMostly cloudy.13 mph76%29.67 "Hg15 mi
8:00 PM45 °FSprinkles. Mostly cloudy.15 mph76%29.69 "Hg15 mi
7:00 PM48 °FPartly sunny.13 mph62%29.70 "Hg15 mi
6:00 PM50 °FPartly sunny.9 mph62%29.68 "Hg15 mi
Weather by CustomWeather, © 2014

See weather overviewHow to use our weather pages